Погода в Ломе

Болгария     43°49′32″N   23°14′15″E
темп.,
°C
ветер,
м/с
пор.,
м/с
влажн.,
%
обл.,
%
осадки,
мм/ч
давл.,
гПа
погр.,
м
14 апреля, ср
ср1400:00+10сз2597100 0.9 1014231
03:00+8ссз4891100 0.9 1014319
06:00+5сз81484100 0.4 1014534
09:00+6зсз91374100 0.7 1016832
12:00+8зсз12156281 0.0 10161098
15:00+10зсз11145485 0.0 10161477
18:00+8зсз1115647 0.0 10171273
21:00+5з9146739 0.0 1018944
15 апреля, чт
чт1500:00+4з9146618 0.0 1019932
03:00+4з714665 0.0 1019737
06:00+5з9137192 0.0 1020936
09:00+6з81266100 0.0 10201160
12:00+9зсз9104964 0.0 10201689
15:00+11зсз9104434 0.0 10191963
18:00+11зсз810515 0.0 10191846
21:00+7з612630 0.0 1020404
16 апреля, пт
пт1600:00+6з613610 0.0 1020351
03:00+5з512650 0.0 1021277
06:00+4зюз411682 0.0 1021217
09:00+8з695996 0.0 10221120
12:00+11зсз78425 0.0 10221474
15:00+13сз67404 0.0 10211651
18:00+12сз5643100 0.0 10191242
21:00+7сз115796 0.0 101910
17 апреля, сб
сб1700:00+7зюз115777 0.0 101910
03:00+7зюз1158100 0.0 101810
06:00+6ю2263100 0.1 101931
09:00+8в2364100 0.3 1017352
12:00+8ююз3367100 0.1 1016437
15:00+6сз2293100 3.5 1016184
18:00+5зюз3396100 1.1 1014168
21:00+6вюв0294100 1.4 1014199
18 апреля, вс
вс1800:00+6в3797100 0.9 1014356
03:00+6в5895100 0.9 1013428
06:00+6в4896100 2.3 1014482
09:00+6всв3696100 3.3 1015471
12:00+7всв4594100 0.4 1016531
15:00+8всв3489100 0.3 1017469
18:00+8ссв2393100 0.2 1016257
21:00+7ссв1296100 0.2 1017104